Regional Weather Roundup
Issued by NWS

Home | Current Version | Previous Version | Text Only | Print | Product List | Glossary On
Versions: 1 2 3 4 5 6 7 8 9 10 11 12 13 14 15 16 17 18 19 20 21 22 23 24 25 26 27 28 29 30 31 32 33 34 35 36 37 38 39 40 41 42 43 44 45 46 47 48 49 50
000
ASUS44 KOUN 271510
RWROK

WEATHER ROUNDUP FOR OKLAHOMA
NATIONAL WEATHER SERVICE NORMAN OK
1000 AM CDT MON APR 27 2015

NOTE: "FAIR" INDICATES FEW OR NO CLOUDS BELOW 12,000 FEET WITH NO
      SIGNIFICANT WEATHER AND/OR OBSTRUCTIONS TO VISIBILITY.

OKZ001>007-009>012-014-015-017-271600-
NORTHWEST OKLAHOMA AND THE PANHANDLE

CITY           SKY/WX    TMP DP  RH WIND       PRES   REMARKS
GAGE           RAIN      45  44  97 NE15G23   29.93R FOG
GUYMON         LGT RAIN  43  41  93 NE26G35   30.00R FOG
ENID/WOODRING  LGT RAIN  50  48  93 NE29G37   29.88F
$$

OKZ016-021>023-033>039-044-045-271600-
SOUTHWEST OKLAHOMA

CITY           SKY/WX    TMP DP  RH WIND       PRES   REMARKS
LAWTON/REGL    CLOUDY    60  56  86 E18       29.74R
LAWTON/FT SILL CLOUDY    60  57  92 E16G25    29.73R
FREDERICK      TSTM      53  52  96 E8        29.72R VSB 1/2
CLINTON        TSTM      51  50  96 NE25      29.81S VSB 1/2
HOBART         LGT RAIN  54  53  97 E22G35    29.75S
ALTUS AFB      TSTM      52  52 100 NW13G18   29.78R VSB 1
$$

OKZ018>020-024>031-271600-
CENTRAL OKLAHOMA

CITY           SKY/WX    TMP DP  RH WIND       PRES   REMARKS
OKLAHOMA CITY  CLOUDY    54  48  80 E25G35    29.83R
OKC/WILEY POST CLOUDY    54  49  83 E22G29    29.85S
OKC/TINKER AFB PTSUNNY   54  49  82 E20G25    29.84R
STILLWATER     LGT RAIN  52  48  86 NE20G26   29.92R
GUTHRIE        CLOUDY    54  50  86 E18G29    29.89R
$$

OKZ008-013-054>072-271600-
NORTHEAST OKLAHOMA

CITY           SKY/WX    TMP DP  RH WIND       PRES   REMARKS
TULSA          CLOUDY    57  45  64 E17G25    29.95R
TULSA/JONES    LGT RAIN  56  48  74 E9        29.94S
PONCA CITY     CLOUDY    52  43  71 E21       29.96S
BARTLESVILLE   CLOUDY    53  42  66 NE12G21   30.02R
MUSKOGEE       CLOUDY    56  46  69 E13       29.94S
$$

OKZ032-040>043-046>053-073>077-271600-
SOUTH CENTRAL/SOUTHEAST OKLAHOMA

CITY           SKY/WX    TMP DP  RH WIND       PRES   REMARKS
ARDMORE/DWNTWN CLOUDY    57  52  82 SE13G20   29.78R
MCALESTER      PTSUNNY   58  49  72 E16G25    29.86F
$$



USA.gov is the U.S. government's official web portal to all federal, state and local government web resources and services.